Tracking 35019 objects as of 13-Aug-2026
HD Live streaming from Space Station
objects crossing your sky now

SL-12 DEB


SL-12 DEB is no longer on orbit


NORAD ID: 29345
Int'l Code: 1989-039BC
Launch date: May 31, 1989
Source: Commonwealth of Independent States (former USSR) (CIS)
Launch site: TYURATAM MISSILE AND SPACE COMPLEX (TTMTR)
Decay date: 2008-02-07

Note: This is SATELLITE DEBRIS
Your satellite tracking list
Your tracking list is empty




NASA's NSSDC Master Catalog

Two Line Element Set (TLE):
1 29345U 89039BC  06341.59621203 +.00389860 +00000-0 +17021-0 0  9999
2 29345 065.5332 225.4456 5638900 062.1740 348.2547 04.53332464006742
Source of the keplerian elements: AFSPC